This is the latest recevied weather packets stored in our database for station/object KP4OZ. If no packets are shown the sender has not sent any weather packets the latest 10 day(s).
| Time | Temp. | Humidity | Pressure | Rain* | Wind** | Luminosity | Snow |
|---|---|---|---|---|---|---|---|
| 1777927255 | 32.22° C | 58% | 1014.1 hPa | 0 mm | - | - | - |
| 1777926953 | 32.22° C | 58% | 1014.4 hPa | 0 mm | - | - | - |
| 1777926650 | 32.22° C | 57% | 1014 hPa | 0 mm | - | - | - |
| 1777926345 | 32.22° C | 57% | 1014 hPa | 0 mm | - | - | - |
| 1777926042 | 32.22° C | 56% | 1014 hPa | 0 mm | - | - | - |
| 1777925739 | 32.22° C | 56% | 1013.9 hPa | 0 mm | - | - | - |
| 1777925437 | 32.78° C | 56% | 1014.1 hPa | 0 mm | - | - | - |
| 1777925133 | 32.78° C | 56% | 1014 hPa | 0 mm | - | - | - |
| 1777924830 | 32.78° C | 57% | 1014.2 hPa | 0 mm | - | - | - |
| 1777924526 | 32.78° C | 54% | 1014.4 hPa | 0 mm | - | - | - |
| 1777924223 | 32.78° C | 53% | 1014.4 hPa | 0 mm | - | - | - |
| 1777923919 | 32.78° C | 54% | 1014.3 hPa | 0 mm | - | - | - |
| 1777923615 | 33.33° C | 54% | 1014.3 hPa | 0 mm | - | - | - |
| 1777923312 | 32.78° C | 53% | 1014.4 hPa | 0 mm | - | - | - |
| 1777923011 | 32.78° C | 55% | 1014.2 hPa | 0 mm | - | - | - |
| 1777922709 | 32.78° C | 55% | 1014.4 hPa | 0 mm | - | - | - |
| 1777922407 | 33.33° C | 53% | 1014.3 hPa | 0 mm | - | - | - |
| 1777922104 | 33.89° C | 51% | 1014.3 hPa | 0 mm | - | - | - |
| 1777921799 | 33.89° C | 49% | 1014.3 hPa | 0 mm | - | - | - |
| 1777921495 | 33.89° C | 50% | 1014.3 hPa | 0 mm | - | - | - |
| 1777921192 | 33.33° C | 51% | 1014.5 hPa | 0 mm | - | - | - |
| 1777920889 | 33.89° C | 50% | 1014.6 hPa | 0 mm | - | - | - |
| 1777920585 | 33.33° C | 50% | 1014.8 hPa | 0 mm | - | - | - |
| 1777920281 | 33.33° C | 52% | 1014.9 hPa | 0 mm | - | - | - |
| 1777919977 | 33.89° C | 50% | 1014.8 hPa | 0 mm | - | - | - |
* Rain latest hour (hover to see other rain measurements)
** Current wind speed in m/s (hover to see current wind gust speed)